Wind_Speed
22 22 21 19 17 17 17 18 17 15 16 17 18 19 20 23 25 26 27 29 32 35 36 38 41 43 45
23 23 24 21 21 21 20 21 22 20 20 19 19 21 22 23 25 26 28 30 32 33 37 40 40 43 45
23 22 25 24 24 22 23 23 24 23 23 23 22 22 23 24 25 26 28 29 31 33 35 37 41 44 46
23 23 25 25 26 28 29 27 28 27 26 24 24 25 24 24 25 26 29 30 32 33 34 38 40 43 47
30 26 27 24 25 28 32 33 32 33 32 29 29 28 27 26 27 27 28 29 31 33 36 38 40 44 47
31 32 23 20 27 26 29 35 41 29 32 38 35 36 34 32 29 29 30 32 33 35 37 38 41 43 46
29 27 24 24 27 32 35 33 35 34 34 44 37 41 38 37 34 33 33 34 37 37 38 40 40 42 46
30 30 31 29 28 28 31 34 36 34 30 44 30 42 42 42 40 37 37 36 36 34 36 39 40 41 42
27 30 30 30 28 29 28 31 39 31 25 36 40 42 45 46 43 40 35 33 34 34 37 39 38 39 43
31 31 28 27 27 30 34 39 41 41 30 33 36 31 39 42 40 39 38 37 37 38 40 39 38 39 41
25 28 28 28 31 35 33 33 37 36 24 30 37 31 31 44 46 42 41 44 45 43 42 40 42 42 47
34 35 32 29 28 28 28 26 30 35 34 33 36 30 37 43 44 38 34 42 44 44 42 40 39 39 37
32 31 29 26 23 25 26 27 29 29 28 28 29 30 34 41 44 44 39 41 44 44 40 37 40 35 36
20 21 24 26 25 24 24 24 25 28 26 24 24 24 31 36 38 41 39 41 42 41 39 40 39 35 33
19 20 19 20 21 21 22 23 23 25 27 25 23 23 26 28 36 38 37 39 39 40 40 41 39 35 33
18 18 19 21 22 23 21 22 25 26 27 27 25 25 27 29 26 29 32 33 31 33 34 40 42 36 35
20 21 22 23 22 24 23 23 24 26 26 24 23 25 28 29 32 27 24 26 29 27 33 38 37 39 38
Wind_Direction
288 296 296 301 294 296 299 298 302 306 303 305 309 313 312 310 305 298 290 285 283 283 277 272 272 274 270
289 297 300 301 300 294 291 295 300 301 300 301 303 308 312 308 306 302 297 293 287 280 278 276 273 270 272
288 295 299 303 304 298 295 295 294 295 294 295 296 297 300 303 306 305 300 295 290 288 283 277 275 271 268
280 291 297 301 302 306 303 302 302 297 295 296 298 296 297 299 302 308 305 299 294 288 283 281 276 272 270
277 284 288 293 299 306 304 305 300 300 299 301 301 296 293 291 291 299 303 306 301 295 289 281 277 275 273
282 277 279 284 294 296 297 300 300 298 306 305 305 301 300 294 292 292 290 294 299 302 296 287 278 275 272
278 279 274 276 286 289 290 288 292 300 297 297 298 298 300 297 298 289 289 290 293 293 295 285 281 275 273
267 270 275 281 284 287 285 291 292 288 291 290 292 294 297 297 295 290 284 287 293 289 296 288 278 275 271
270 275 278 277 275 279 280 283 283 279 278 283 286 287 294 293 291 291 288 285 291 291 292 297 284 276 274
281 280 273 267 268 268 274 279 277 281 281 279 286 284 285 288 294 295 292 287 292 291 293 287 287 276 270
269 277 282 282 282 282 278 275 275 275 272 272 276 284 275 285 287 286 286 288 291 291 293 284 281 277 267
282 281 281 278 279 280 279 271 269 273 278 276 277 274 275 273 277 281 280 285 288 289 290 288 284 279 260
280 280 282 283 280 281 281 281 279 278 277 276 277 276 275 273 275 278 280 280 283 286 289 285 287 279 267
279 279 280 284 285 286 288 287 288 287 286 286 286 281 280 273 275 281 281 274 280 283 282 284 284 276 265
282 284 284 287 287 292 292 292 286 291 296 296 294 287 285 279 275 272 279 278 278 281 280 281 280 278 271
286 285 286 288 289 292 295 292 286 294 296 296 300 299 296 294 287 284 280 282 283 281 279 274 276 276 273
288 288 288 286 286 285 292 296 291 293 304 300 297 297 294 286 300 295 289 282 276 275 278 273 274 272 272
Height
1498 1498 1499 1498 1498 1497 1496 1495 1495 1494 1492 1490 1489 1488 1487 1488 1488 1488 1489 1490 1490 1488 1489 1491 1492 1492 1494
1494 1493 1493 1492 1492 1490 1490 1490 1488 1487 1485 1483 1482 1482 1482 1482 1481 1481 1481 1481 1480 1479 1478 1479 1482 1483 1484
1488 1488 1487 1486 1484 1483 1483 1482 1480 1479 1477 1477 1476 1476 1475 1475 1474 1473 1473 1473 1472 1470 1469 1471 1471 1473 1474
1483 1483 1482 1481 1478 1476 1473 1473 1472 1471 1469 1469 1469 1468 1467 1467 1466 1465 1464 1463 1462 1461 1461 1461 1461 1461 1462
1477 1477 1476 1475 1472 1470 1466 1464 1462 1462 1460 1460 1459 1459 1458 1459 1458 1458 1456 1454 1452 1451 1450 1451 1451 1451 1450
1470 1469 1469 1468 1467 1464 1461 1458 1451 1455 1452 1449 1449 1446 1447 1448 1450 1449 1448 1447 1445 1443 1441 1440 1439 1439 1439
1464 1463 1463 1463 1462 1459 1457 1452 1448 1448 1446 1437 1443 1438 1439 1438 1439 1438 1437 1437 1435 1434 1432 1431 1429 1428 1427
1456 1456 1456 1455 1454 1453 1449 1444 1440 1442 1442 1428 1437 1428 1429 1427 1427 1427 1426 1426 1425 1423 1421 1419 1417 1416 1415
1448 1448 1447 1446 1446 1444 1440 1438 1430 1434 1436 1428 1426 1423 1420 1414 1414 1415 1415 1415 1414 1412 1410 1408 1406 1405 1401
1437 1437 1435 1435 1436 1435 1433 1429 1425 1420 1426 1423 1417 1420 1411 1405 1403 1402 1404 1404 1403 1402 1401 1398 1395 1393 1389
1426 1426 1426 1425 1424 1422 1421 1420 1415 1411 1416 1414 1410 1410 1405 1394 1393 1394 1393 1392 1392 1390 1388 1386 1384 1383 1379
1418 1416 1415 1415 1414 1412 1410 1409 1406 1403 1405 1404 1398 1399 1396 1390 1384 1385 1384 1381 1381 1378 1375 1373 1371 1368 1367
1408 1406 1405 1404 1403 1402 1400 1398 1395 1394 1393 1393 1391 1389 1388 1381 1376 1373 1374 1370 1369 1366 1363 1361 1359 1356 1353
1401 1399 1397 1395 1393 1393 1391 1389 1386 1383 1383 1383 1381 1380 1375 1371 1369 1363 1363 1359 1357 1355 1353 1351 1348 1345 1342
1393 1391 1390 1388 1386 1385 1383 1381 1379 1376 1373 1373 1371 1369 1365 1363 1358 1355 1352 1350 1347 1344 1343 1339 1335 1334 1331
1387 1386 1384 1382 1380 1378 1376 1374 1372 1369 1366 1364 1362 1358 1355 1352 1351 1345 1342 1339 1337 1335 1332 1329 1324 1322 1321
1382 1380 1378 1375 1374 1371 1369 1367 1364 1362 1359 1357 1355 1352 1347 1341 1340 1339 1334 1331 1328 1324 1322 1318 1315 1312 1311